Regional Weather Roundup
Issued by NWS State College, PA

Home | Current Version | Previous Version | Graphics & Text | Print | Product List | Glossary On
Versions: 1 2 3 4 5 6 7 8 9 10 11 12 13 14 15 16 17 18 19 20 21 22 23 24 25 26 27 28 29 30 31 32 33 34 35 36 37 38 39 40 41 42 43 44 45 46 47 48 49 50
000
ASUS41 KCTP 020703
RWRCTP

REGIONAL WEATHER ROUNDUP
NATIONAL WEATHER SERVICE STATE COLLEGE PA
300 AM EDT THU JUL 02 2015

Note: "fair" indicates few or no clouds below 12,000 feet with no
significant weather and/or obstructions to visibility.

* = STATION THAT DOES NOT REPORT PRECIPITATION /E.G. RAIN...SNOW...ETC/
    THUNDER OR FOG.

PAZ002>004-007>009-013>016-020>023-029>032-020800-
WESTERN PENNSYLVANIA

CITY           SKY/WX    TMP DP  RH WIND       PRES   REMARKS
ERIE           MOCLDY    61  56  83 CALM      29.94S
MEADVILLE      MOCLDY    58  55  90 CALM      29.95F FOG
FRANKLIN*      MOCLDY    55  54  94 N3        29.96F
NEW CASTLE     PTSUNNY   60  60 100 CALM      29.95F
BEAVER COUNTY  NOT AVBL
BUTLER*        PTCLDY    57  55  94 CALM      29.96R VSB 1
PITTSBURGH INT MOCLDY    60  57  89 CALM      29.92F
PITTSBURGH     CLEAR     63  56  78 NW3       29.93F
INDIANA*       CLOUDY    57  57 100 CALM      29.98S
LATROBE        NOT AVBL
WASHINGTON CO* NOT AVBL
$$

PAZ004>006-010>012-017>019-024>028-033>037-041-042-045-046-049>053-020800-
CENTRAL PENNSYLVANIA

CITY           SKY/WX    TMP DP  RH WIND       PRES   REMARKS
BRADFORD       MOCLDY    51  49  92 CALM      29.96S FOG
DUBOIS         MOCLDY    61  55  81 CALM      29.95S
CLEARFIELD     CLOUDY    57  55  93 CALM      29.95S
JOHNSTOWN      MOCLDY    58  55  90 SW5       29.97S
ALTOONA        CLEAR     57  55  93 SW3       29.95F
STATE COLLEGE  NOT AVBL
WILLIAMSPORT   PTCLDY    59  56  89 CALM      29.91S
SELINSGROVE    MOCLDY    61  59  93 CALM      29.92S FOG
FT INDIANTOWN  CLEAR     62  60  91 CALM      29.89F
CAPITAL CITY   PTCLDY    64  58  80 SW5       29.90S
HARRISBURG     PTCLDY    64  60  87 CALM      29.89S
YORK           PTCLDY    59  58  96 CALM      29.91S
$$

PAZ038>040-043-044-047-048-054-055-060>062-067>071-020800-
EASTERN PENNSYLVANIA

CITY           SKY/WX    TMP DP  RH WIND       PRES   REMARKS
SCRANTON       CLEAR     59  56  89 SE3       29.92R
MOUNT POCONO   CLEAR     56  54  93 NW3       29.94S
ALLENTOWN      CLEAR     62  59  90 CALM      29.89F FOG
QUAKERTOWN*    SUNNY     59  59 100 CALM      29.90F
READING        CLEAR     63  58  83 CALM      29.88F
LANCASTER      PTCLDY    62  59  90 CALM      29.89F
COATESVILLE    NOT AVBL
POTTSTOWN      CLEAR     61  60  97 CALM      29.90F
BLUE BELL      NOT AVBL
DOYLESTOWN     CLEAR     62  59  90 CALM      29.88F
WILLOW GROVE   NOT AVBL
NORTH PHILA    CLEAR     67  58  72 CALM      29.89F
PHILADELPHIA   PTCLDY    71  59  65 CALM      29.89F
$$


USA.gov is the U.S. government's official web portal to all federal, state and local government web resources and services.